Time,TemperatureF,DewpointF,PressureIn,WindDirection,WindDirectionDegrees,WindSpeedMPH,WindSpeedGustMPH,Humidity,HourlyPrecipIn,Conditions,Clouds,dailyrainin,SoftwareType,DateUTC
2013-12-03 00:01:00,38.1,32.2,29.93,NNE,31,3.5,3.5,79,0.00,CLR,,0.00,WeatherDisplay:10.37,2013-12-03 05:01:00,
2013-12-03 00:02:00,38.1,32.2,29.93,NNE,30,3.5,3.5,79,0.00,CLR,,0.00,WeatherDisplay:10.37,2013-12-03 05:02:00,
2013-12-03 00:03:00,38.0,32.1,29.93,NNE,31,3.5,3.5,79,0.00,CLR,,0.00,WeatherDisplay:10.37,2013-12-03 05:03:00,
2013-12-03 00:08:00,38.0,32.1,29.93,NNE,30,1.2,1.2,79,0.00,CLR,,0.00,WeatherDisplay:10.37,2013-12-03 05:08:00,
2013-12-03 00:13:00,38.0,32.1,29.93,NNE,30,3.5,3.5,79,0.00,CLR,,0.00,WeatherDisplay:10.37,2013-12-03 05:13:00,
2013-12-03 00:18:00,38.0,32.1,29.93,NNE,30,3.5,3.5,79,0.00,CLR,,0.00,WeatherDisplay:10.37,2013-12-03 05:18:00,
2013-12-03 00:23:00,37.9,32.0,29.93,NNE,30,1.2,1.2,79,0.00,CLR,,0.00,WeatherDisplay:10.37,2013-12-03 05:23:00,
2013-12-03 00:28:00,37.9,32.0,29.93,NNE,30,0.0,0.0,79,0.00,CLR,,0.00,WeatherDisplay:10.37,2013-12-03 05:28:00,
2013-12-03 00:33:00,37.9,32.0,29.93,NNE,31,3.5,3.5,79,0.00,CLR,,0.00,WeatherDisplay:10.37,2013-12-03 05:33:00,
2013-12-03 00:38:00,37.8,31.9,29.93,NNE,30,2.3,0.0,79,0.00,CLR,,0.00,WeatherDisplay:10.37,2013-12-03 05:38:00,
2013-12-03 00:43:00,37.8,31.9,29.93,NNE,31,0.0,0.0,79,0.00,CLR,,0.00,WeatherDisplay:10.37,2013-12-03 05:43:00,
2013-12-03 00:48:00,37.8,31.9,29.92,NNE,30,0.0,0.0,79,0.00,CLR,,0.00,WeatherDisplay:10.37,2013-12-03 05:48:00,
2013-12-03 00:53:00,37.7,31.8,29.92,NNE,31,0.0,0.0,79,0.00,CLR,,0.00,WeatherDisplay:10.37,2013-12-03 05:53:00,
2013-12-03 00:58:00,37.7,31.8,29.93,NNE,31,0.0,0.0,79,0.00,CLR,,0.00,WeatherDisplay:10.37,2013-12-03 05:58:00,
2013-12-03 01:03:00,37.7,31.8,29.93,NNE,31,0.0,0.0,79,0.00,CLR,,0.00,WeatherDisplay:10.37,2013-12-03 06:03:00,
2013-12-03 01:08:00,37.7,31.8,29.93,NNE,31,0.0,0.0,79,0.00,CLR,,0.00,WeatherDisplay:10.37,2013-12-03 06:08:00,
2013-12-03 01:13:00,37.6,31.7,29.93,NNE,31,0.0,0.0,79,0.00,CLR,,0.00,WeatherDisplay:10.37,2013-12-03 06:13:00,
2013-12-03 01:18:00,37.6,32.0,29.93,NNE,30,2.3,2.3,80,0.00,CLR,,0.00,WeatherDisplay:10.37,2013-12-03 06:18:00,
2013-12-03 01:23:00,37.6,32.0,29.93,NNE,31,1.2,0.0,80,0.00,CLR,,0.00,WeatherDisplay:10.37,2013-12-03 06:23:00,
2013-12-03 01:28:00,37.5,31.9,29.93,NNE,30,1.2,0.0,80,0.00,CLR,,0.00,WeatherDisplay:10.37,2013-12-03 06:28:00,
2013-12-03 01:33:00,37.5,31.6,29.93,NNE,30,0.0,0.0,79,0.00,CLR,,0.00,WeatherDisplay:10.37,2013-12-03 06:33:00,
2013-12-03 01:38:00,37.5,31.9,29.93,NNE,31,1.2,1.2,80,0.00,CLR,,0.00,WeatherDisplay:10.37,2013-12-03 06:38:00,
2013-12-03 01:43:00,37.5,31.9,29.93,NNE,30,0.0,0.0,80,0.00,CLR,,0.00,WeatherDisplay:10.37,2013-12-03 06:43:00,
2013-12-03 01:48:00,37.4,31.8,29.93,NNE,30,0.0,0.0,80,0.00,CLR,,0.00,WeatherDisplay:10.37,2013-12-03 06:48:00,
2013-12-03 01:53:00,37.4,31.8,29.93,NNE,31,0.0,0.0,80,0.00,CLR,,0.00,WeatherDisplay:10.37,2013-12-03 06:53:00,
2013-12-03 01:58:00,37.4,31.8,29.93,NNE,30,0.0,0.0,80,0.00,CLR,,0.00,WeatherDisplay:10.37,2013-12-03 06:58:00,
2013-12-03 02:03:00,37.4,31.8,29.93,NNE,31,0.0,0.0,80,0.00,CLR,,0.00,WeatherDisplay:10.37,2013-12-03 07:03:00,
2013-12-03 02:08:00,37.3,31.7,29.93,NNE,31,0.0,0.0,80,0.00,CLR,,0.00,WeatherDisplay:10.37,2013-12-03 07:08:00,
2013-12-03 02:13:00,37.3,31.7,29.93,NNE,31,1.2,1.2,80,0.00,CLR,,0.00,WeatherDisplay:10.37,2013-12-03 07:13:00,
2013-12-03 02:18:00,37.3,31.7,29.93,NNE,31,3.5,3.5,80,0.00,CLR,,0.00,WeatherDisplay:10.37,2013-12-03 07:18:00,
2013-12-03 02:23:00,37.2,31.6,29.93,NNE,31,3.5,3.5,80,0.00,CLR,,0.00,WeatherDisplay:10.37,2013-12-03 07:23:00,
2013-12-03 02:28:00,37.2,31.6,29.93,NNE,25,3.5,3.5,80,0.00,CLR,,0.00,WeatherDisplay:10.37,2013-12-03 07:28:00,
2013-12-03 02:33:00,37.1,31.5,29.93,NNE,25,4.0,4.0,80,0.00,CLR,,0.00,WeatherDisplay:10.37,2013-12-03 07:33:00,
2013-12-03 02:38:00,37.1,31.5,29.94,NNE,25,3.5,3.5,80,0.00,CLR,,0.00,WeatherDisplay:10.37,2013-12-03 07:38:00,
2013-12-03 02:43:00,37.1,31.8,29.94,NNE,25,2.3,2.3,81,0.01,RA,,0.01,WeatherDisplay:10.37,2013-12-03 07:43:00,
2013-12-03 02:48:00,37.0,31.7,29.94,NNE,25,2.3,2.3,81,0.01,RA,,0.01,WeatherDisplay:10.37,2013-12-03 07:48:00,
2013-12-03 02:53:00,37.0,31.7,29.94,NNE,25,3.5,3.5,81,0.01,,,0.01,WeatherDisplay:10.37,2013-12-03 07:53:00,
2013-12-03 02:58:00,37.0,31.7,29.94,NNE,25,1.2,0.0,81,0.01,CLR,,0.01,WeatherDisplay:10.37,2013-12-03 07:58:00,
2013-12-03 03:03:00,36.9,31.6,29.94,NNE,25,3.5,3.5,81,0.01,CLR,,0.01,WeatherDisplay:10.37,2013-12-03 08:03:00,
2013-12-03 03:08:00,36.9,31.6,29.94,NNE,28,3.5,3.5,81,0.01,CLR,,0.01,WeatherDisplay:10.37,2013-12-03 08:08:00,
2013-12-03 03:13:00,36.9,31.6,29.94,NNE,28,2.3,2.3,81,0.01,CLR,,0.01,WeatherDisplay:10.37,2013-12-03 08:13:00,
2013-12-03 03:18:00,36.8,31.5,29.94,NNE,28,0.0,0.0,81,0.01,CLR,,0.01,WeatherDisplay:10.37,2013-12-03 08:18:00,
2013-12-03 03:23:00,36.8,31.8,29.94,NNE,28,2.3,2.3,82,0.01,CLR,,0.01,WeatherDisplay:10.37,2013-12-03 08:23:00,
2013-12-03 03:28:00,36.7,31.7,29.94,NNE,28,0.0,0.0,82,0.01,CLR,,0.01,WeatherDisplay:10.37,2013-12-03 08:28:00,
2013-12-03 03:33:00,36.6,31.6,29.94,NNE,28,0.0,0.0,82,0.01,CLR,,0.01,WeatherDisplay:10.37,2013-12-03 08:33:00,
2013-12-03 03:38:00,36.6,31.6,29.94,NNE,28,0.0,0.0,82,0.01,CLR,,0.01,WeatherDisplay:10.37,2013-12-03 08:38:00,
2013-12-03 03:43:00,36.5,31.5,29.94,NNE,28,1.2,1.2,82,0.01,CLR,,0.01,WeatherDisplay:10.37,2013-12-03 08:43:00,
2013-12-03 03:48:00,36.5,31.5,29.94,NNE,28,0.0,0.0,82,0.00,CLR,,0.01,WeatherDisplay:10.37,2013-12-03 08:48:00,
2013-12-03 03:53:00,36.5,31.5,29.94,NNE,28,0.0,0.0,82,0.00,CLR,,0.01,WeatherDisplay:10.37,2013-12-03 08:53:00,
2013-12-03 03:58:00,36.4,31.4,29.94,NNE,28,0.0,0.0,82,0.00,CLR,,0.01,WeatherDisplay:10.37,2013-12-03 08:58:00,
2013-12-03 04:03:00,36.4,31.4,29.94,NNE,28,1.2,0.0,82,0.00,CLR,,0.01,WeatherDisplay:10.37,2013-12-03 09:03:00,
2013-12-03 04:08:00,36.4,31.4,29.94,NNE,28,0.0,0.0,82,0.00,CLR,,0.01,WeatherDisplay:10.37,2013-12-03 09:08:00,
2013-12-03 04:13:00,36.4,31.4,29.94,NNE,28,0.0,0.0,82,0.00,CLR,,0.01,WeatherDisplay:10.37,2013-12-03 09:13:00,
2013-12-03 04:18:00,36.3,31.3,29.94,NNE,28,2.3,2.3,82,0.00,CLR,,0.01,WeatherDisplay:10.37,2013-12-03 09:18:00,
2013-12-03 04:23:00,36.3,31.3,29.94,NNE,28,2.3,2.3,82,0.00,CLR,,0.01,WeatherDisplay:10.37,2013-12-03 09:23:00,
2013-12-03 04:28:00,36.3,31.6,29.94,NNE,28,0.0,0.0,83,0.00,CLR,,0.01,WeatherDisplay:10.37,2013-12-03 09:28:00,
2013-12-03 04:33:00,36.3,31.6,29.94,NNE,28,0.0,0.0,83,0.00,CLR,,0.01,WeatherDisplay:10.37,2013-12-03 09:33:00,
2013-12-03 04:38:00,36.4,31.7,29.94,NNE,28,0.0,0.0,83,0.00,CLR,,0.01,WeatherDisplay:10.37,2013-12-03 09:38:00,
2013-12-03 04:43:00,36.4,31.7,29.94,NNE,28,2.0,2.0,83,0.00,CLR,,0.01,WeatherDisplay:10.37,2013-12-03 09:43:00,
2013-12-03 04:48:00,36.4,31.7,29.94,NNE,28,0.0,0.0,83,0.00,CLR,,0.01,WeatherDisplay:10.37,2013-12-03 09:48:00,
2013-12-03 04:53:00,36.4,31.7,29.94,NNE,28,1.2,1.2,83,0.00,CLR,,0.01,WeatherDisplay:10.37,2013-12-03 09:53:00,
2013-12-03 04:58:00,36.4,31.7,29.95,NNE,28,0.0,0.0,83,0.00,CLR,,0.01,WeatherDisplay:10.37,2013-12-03 09:58:00,
2013-12-03 05:03:00,36.4,31.7,29.95,NNE,28,0.0,0.0,83,0.00,CLR,,0.01,WeatherDisplay:10.37,2013-12-03 10:03:00,
2013-12-03 05:08:00,36.4,31.7,29.95,NNE,28,0.0,0.0,83,0.00,CLR,,0.01,WeatherDisplay:10.37,2013-12-03 10:08:00,
2013-12-03 05:13:00,36.4,31.7,29.95,NNE,28,0.0,0.0,83,0.00,CLR,,0.01,WeatherDisplay:10.37,2013-12-03 10:13:00,
2013-12-03 05:18:00,36.4,31.7,29.95,NNE,28,1.0,1.0,83,0.00,CLR,,0.01,WeatherDisplay:10.37,2013-12-03 10:18:00,
2013-12-03 05:23:00,36.4,31.7,29.95,NNE,28,0.0,0.0,83,0.00,CLR,,0.01,WeatherDisplay:10.37,2013-12-03 10:23:00,
2013-12-03 05:28:00,36.4,31.7,29.95,NNE,28,2.3,2.3,83,0.00,CLR,,0.01,WeatherDisplay:10.37,2013-12-03 10:28:00,
2013-12-03 05:33:00,36.5,31.8,29.95,NNE,28,1.0,0.0,83,0.00,CLR,,0.01,WeatherDisplay:10.37,2013-12-03 10:33:00,
2013-12-03 05:38:00,36.6,31.9,29.95,NNE,28,0.0,0.0,83,0.00,CLR,,0.01,WeatherDisplay:10.37,2013-12-03 10:38:00,
2013-12-03 05:43:00,36.6,32.2,29.94,NNE,28,1.2,0.0,84,0.00,CLR,,0.01,WeatherDisplay:10.37,2013-12-03 10:43:00,
2013-12-03 05:48:00,36.6,32.2,29.94,NE,48,3.5,3.5,84,0.00,CLR,,0.01,WeatherDisplay:10.37,2013-12-03 10:48:00,
2013-12-03 05:53:00,36.7,32.3,29.94,NE,48,0.0,0.0,84,0.00,CLR,,0.01,WeatherDisplay:10.37,2013-12-03 10:53:00,
2013-12-03 05:58:00,36.7,32.3,29.94,NE,48,1.2,0.0,84,0.00,CLR,,0.01,WeatherDisplay:10.37,2013-12-03 10:58:00,
2013-12-03 06:03:00,36.7,32.3,29.94,NE,48,2.3,2.3,84,0.00,CLR,,0.01,WeatherDisplay:10.37,2013-12-03 11:03:00,
2013-12-03 06:08:00,36.7,32.3,29.94,NE,48,0.0,0.0,84,0.00,CLR,,0.01,WeatherDisplay:10.37,2013-12-03 11:08:00,
2013-12-03 06:13:00,36.7,32.3,29.94,NE,48,0.0,0.0,84,0.00,CLR,,0.01,WeatherDisplay:10.37,2013-12-03 11:13:00,
2013-12-03 06:18:00,36.7,32.3,29.95,NE,48,0.0,0.0,84,0.00,CLR,,0.01,WeatherDisplay:10.37,2013-12-03 11:18:00,
2013-12-03 06:23:00,36.7,32.3,29.94,NE,48,0.0,0.0,84,0.00,CLR,,0.01,WeatherDisplay:10.37,2013-12-03 11:23:00,
2013-12-03 06:28:00,36.6,32.2,29.94,NE,48,1.2,1.2,84,0.00,CLR,,0.01,WeatherDisplay:10.37,2013-12-03 11:28:00,
2013-12-03 06:33:00,36.6,32.2,29.95,NE,48,0.0,0.0,84,0.00,CLR,,0.01,WeatherDisplay:10.37,2013-12-03 11:33:00,
2013-12-03 06:38:00,36.6,32.2,29.95,NE,48,0.0,0.0,84,0.00,CLR,,0.01,WeatherDisplay:10.37,2013-12-03 11:38:00,
2013-12-03 06:43:00,36.6,32.2,29.96,NE,48,0.0,0.0,84,0.00,CLR,,0.01,WeatherDisplay:10.37,2013-12-03 11:43:00,
2013-12-03 06:48:00,36.5,32.1,29.96,NE,48,0.0,0.0,84,0.00,CLR,,0.01,WeatherDisplay:10.37,2013-12-03 11:48:00,
2013-12-03 06:53:00,36.5,32.1,29.96,NE,48,0.0,0.0,84,0.00,CLR,,0.01,WeatherDisplay:10.37,2013-12-03 11:53:00,
2013-12-03 06:58:00,36.5,32.1,29.96,NE,48,0.0,0.0,84,0.00,CLR,,0.01,WeatherDisplay:10.37,2013-12-03 11:58:00,
2013-12-03 07:03:00,36.5,32.1,29.96,NE,48,0.0,0.0,84,0.00,CLR,,0.01,WeatherDisplay:10.37,2013-12-03 12:03:00,
2013-12-03 07:08:00,36.4,32.0,29.96,NE,48,0.0,0.0,84,0.00,CLR,,0.01,WeatherDisplay:10.37,2013-12-03 12:08:00,
2013-12-03 07:13:00,36.4,32.0,29.96,NE,48,0.0,0.0,84,0.00,CLR,,0.01,WeatherDisplay:10.37,2013-12-03 12:13:00,
2013-12-03 07:18:00,36.4,32.0,29.96,NE,48,0.0,0.0,84,0.00,CLR,,0.01,WeatherDisplay:10.37,2013-12-03 12:18:00,
2013-12-03 07:23:00,36.4,32.0,29.96,NE,48,0.0,0.0,84,0.00,CLR,,0.01,WeatherDisplay:10.37,2013-12-03 12:23:00,
2013-12-03 07:28:00,36.4,32.0,29.96,NE,48,0.0,0.0,84,0.00,CLR,,0.01,WeatherDisplay:10.37,2013-12-03 12:28:00,
2013-12-03 07:33:00,36.4,32.0,29.96,NE,48,0.0,0.0,84,0.00,CLR,,0.01,WeatherDisplay:10.37,2013-12-03 12:33:00,
2013-12-03 07:38:00,36.5,32.1,29.96,NE,48,0.0,0.0,84,0.00,CLR,,0.01,WeatherDisplay:10.37,2013-12-03 12:38:00,
2013-12-03 07:43:00,36.5,32.1,29.96,NE,48,0.0,0.0,84,0.00,CLR,,0.01,WeatherDisplay:10.37,2013-12-03 12:43:00,
2013-12-03 07:48:00,36.5,32.1,29.96,NE,48,0.0,0.0,84,0.00,CLR,,0.01,WeatherDisplay:10.37,2013-12-03 12:48:00,
2013-12-03 07:53:00,36.6,32.2,29.97,NE,48,0.0,0.0,84,0.00,CLR,,0.01,WeatherDisplay:10.37,2013-12-03 12:53:00,
2013-12-03 07:58:00,36.7,32.3,29.97,NE,48,0.0,0.0,84,0.00,CLR,,0.01,WeatherDisplay:10.37,2013-12-03 12:58:00,
2013-12-03 08:03:00,36.7,32.3,29.97,NE,48,0.0,0.0,84,0.00,CLR,,0.01,WeatherDisplay:10.37,2013-12-03 13:03:00,
2013-12-03 08:08:00,36.8,32.4,29.97,NE,48,0.0,0.0,84,0.00,CLR,,0.01,WeatherDisplay:10.37,2013-12-03 13:08:00,
2013-12-03 08:13:00,36.8,32.4,29.96,NE,48,0.0,0.0,84,0.00,CLR,,0.01,WeatherDisplay:10.37,2013-12-03 13:13:00,
2013-12-03 08:18:00,36.9,32.5,29.96,NE,48,0.0,0.0,84,0.00,CLR,,0.01,WeatherDisplay:10.37,2013-12-03 13:18:00,
2013-12-03 08:23:00,36.9,32.5,29.96,East,86,2.0,2.0,84,0.00,CLR,,0.01,WeatherDisplay:10.37,2013-12-03 13:23:00,
2013-12-03 08:28:00,37.0,32.6,29.96,SSW,193,2.3,2.3,84,0.00,CLR,,0.01,WeatherDisplay:10.37,2013-12-03 13:28:00,
2013-12-03 08:33:00,37.0,32.6,29.96,SSW,192,1.2,0.0,84,0.00,CLR,,0.01,WeatherDisplay:10.37,2013-12-03 13:33:00,
2013-12-03 08:38:00,37.0,32.6,29.96,SSW,193,0.0,0.0,84,0.00,CLR,,0.01,WeatherDisplay:10.37,2013-12-03 13:38:00,
2013-12-03 08:43:00,37.1,32.7,29.96,SSW,192,0.0,0.0,84,0.00,CLR,,0.01,WeatherDisplay:10.37,2013-12-03 13:43:00,
2013-12-03 08:48:00,37.4,33.0,29.96,SSW,192,0.0,0.0,84,0.00,CLR,,0.01,WeatherDisplay:10.37,2013-12-03 13:48:00,
2013-12-03 08:53:00,37.7,33.6,29.96,SSW,192,0.0,0.0,85,0.00,CLR,,0.01,WeatherDisplay:10.37,2013-12-03 13:53:00,
2013-12-03 08:58:00,38.0,33.9,29.96,SSW,192,0.0,0.0,85,0.00,CLR,,0.01,WeatherDisplay:10.37,2013-12-03 13:58:00,
2013-12-03 09:03:00,38.4,34.3,29.97,SSW,192,0.0,0.0,85,0.00,CLR,,0.01,WeatherDisplay:10.37,2013-12-03 14:03:00,
2013-12-03 09:08:00,38.7,34.6,29.97,SSW,193,0.0,0.0,85,0.00,CLR,,0.01,WeatherDisplay:10.37,2013-12-03 14:08:00,
2013-12-03 09:13:00,39.0,34.9,29.97,South,185,0.0,0.0,85,0.00,CLR,,0.01,WeatherDisplay:10.37,2013-12-03 14:13:00,
2013-12-03 09:18:00,39.3,35.2,29.97,South,180,1.0,0.0,85,0.00,CLR,,0.01,WeatherDisplay:10.37,2013-12-03 14:18:00,
2013-12-03 09:23:00,39.8,35.7,29.97,South,180,0.0,0.0,85,0.00,CLR,,0.01,WeatherDisplay:10.37,2013-12-03 14:23:00,
2013-12-03 09:28:00,40.2,36.1,29.98,South,180,0.0,0.0,85,0.00,CLR,,0.01,WeatherDisplay:10.37,2013-12-03 14:28:00,
2013-12-03 09:33:00,40.4,36.2,29.98,South,180,0.0,0.0,85,0.01,RA,,0.02,WeatherDisplay:10.37,2013-12-03 14:33:00,
2013-12-03 09:38:00,40.7,36.5,29.98,South,180,2.3,2.3,85,0.01,RA,,0.02,WeatherDisplay:10.37,2013-12-03 14:38:00,
2013-12-03 09:43:00,40.9,36.7,29.98,South,182,2.3,2.3,85,0.01,CLR,,0.02,WeatherDisplay:10.37,2013-12-03 14:43:00,
2013-12-03 09:48:00,41.2,37.0,29.99,ENE,57,2.3,2.3,85,0.01,CLR,,0.02,WeatherDisplay:10.37,2013-12-03 14:48:00,
2013-12-03 09:53:00,41.4,37.2,29.99,ENE,57,2.3,0.0,85,0.01,CLR,,0.02,WeatherDisplay:10.37,2013-12-03 14:53:00,
2013-12-03 09:58:00,41.6,37.4,29.99,NE,56,0.0,0.0,85,0.01,CLR,,0.02,WeatherDisplay:10.37,2013-12-03 14:58:00,
2013-12-03 10:03:00,41.9,37.7,29.99,ENE,57,0.0,0.0,85,0.01,CLR,,0.02,WeatherDisplay:10.37,2013-12-03 15:03:00,
2013-12-03 10:08:00,42.1,37.9,29.99,ENE,57,0.0,0.0,85,0.01,CLR,,0.02,WeatherDisplay:10.37,2013-12-03 15:08:00,
2013-12-03 10:13:00,42.3,38.1,29.99,ENE,57,0.0,0.0,85,0.01,CLR,,0.02,WeatherDisplay:10.37,2013-12-03 15:13:00,
2013-12-03 10:18:00,42.4,38.2,29.99,NE,56,0.0,0.0,85,0.01,CLR,,0.02,WeatherDisplay:10.37,2013-12-03 15:18:00,
2013-12-03 10:23:00,42.5,38.0,29.99,NE,56,0.0,0.0,84,0.01,CLR,,0.02,WeatherDisplay:10.37,2013-12-03 15:23:00,
2013-12-03 10:28:00,42.6,38.1,29.99,ENE,57,2.3,2.3,84,0.01,CLR,,0.02,WeatherDisplay:10.37,2013-12-03 15:28:00,
2013-12-03 10:33:00,42.7,38.2,29.99,NE,56,2.3,2.3,84,0.00,CLR,,0.02,WeatherDisplay:10.37,2013-12-03 15:33:00,
2013-12-03 10:38:00,43.1,38.6,29.99,NE,56,2.3,2.3,84,0.00,CLR,,0.02,WeatherDisplay:10.37,2013-12-03 15:38:00,
2013-12-03 10:43:00,43.4,38.9,29.99,NNE,28,0.0,0.0,84,0.00,CLR,,0.02,WeatherDisplay:10.37,2013-12-03 15:43:00,
2013-12-03 10:48:00,43.8,39.3,29.99,South,174,0.0,0.0,84,0.00,CLR,,0.02,WeatherDisplay:10.37,2013-12-03 15:48:00,
2013-12-03 10:53:00,44.1,39.6,29.99,South,173,0.0,0.0,84,0.00,CLR,,0.02,WeatherDisplay:10.37,2013-12-03 15:53:00,
2013-12-03 10:58:00,44.4,39.6,29.99,South,173,0.0,0.0,83,0.00,CLR,,0.02,WeatherDisplay:10.37,2013-12-03 15:58:00,
2013-12-03 11:03:00,44.7,39.9,29.99,WSW,243,3.5,3.5,83,0.00,CLR,,0.02,WeatherDisplay:10.37,2013-12-03 16:03:00,
2013-12-03 11:08:00,45.0,40.1,29.99,WSW,250,1.2,1.2,83,0.00,CLR,,0.02,WeatherDisplay:10.37,2013-12-03 16:08:00,
2013-12-03 11:13:00,45.2,40.0,29.98,WSW,249,1.2,0.0,82,0.00,CLR,,0.02,WeatherDisplay:10.37,2013-12-03 16:13:00,
2013-12-03 11:18:00,45.4,40.2,29.98,SW,217,2.3,2.3,82,0.00,CLR,,0.02,WeatherDisplay:10.37,2013-12-03 16:18:00,
2013-12-03 11:23:00,45.5,40.0,29.98,SSW,203,3.5,3.5,81,0.00,CLR,,0.02,WeatherDisplay:10.37,2013-12-03 16:23:00,
2013-12-03 11:28:00,45.7,39.9,29.98,SSW,213,2.3,2.3,80,0.00,CLR,,0.02,WeatherDisplay:10.37,2013-12-03 16:28:00,
2013-12-03 11:33:00,45.8,40.0,29.98,SSW,202,3.5,3.5,80,0.00,CLR,,0.02,WeatherDisplay:10.37,2013-12-03 16:33:00,
2013-12-03 11:38:00,46.0,40.2,29.97,South,189,3.5,3.5,80,0.00,CLR,,0.02,WeatherDisplay:10.37,2013-12-03 16:38:00,
2013-12-03 11:43:00,46.1,39.9,29.97,SSW,200,3.5,3.5,79,0.00,CLR,,0.02,WeatherDisplay:10.37,2013-12-03 16:43:00,
2013-12-03 11:48:00,46.4,40.2,29.97,SW,225,2.0,2.0,79,0.00,CLR,,0.02,WeatherDisplay:10.37,2013-12-03 16:48:00,
2013-12-03 11:53:00,46.6,40.1,29.97,South,179,4.0,4.0,78,0.00,CLR,,0.02,WeatherDisplay:10.37,2013-12-03 16:53:00,
2013-12-03 11:58:00,46.8,40.3,29.97,SSW,199,3.5,3.5,78,0.00,CLR,,0.02,WeatherDisplay:10.37,2013-12-03 16:58:00,
2013-12-03 12:03:00,46.9,40.1,29.97,SSW,202,2.0,2.0,77,0.00,CLR,,0.02,WeatherDisplay:10.37,2013-12-03 17:03:00,
2013-12-03 12:08:00,47.3,40.5,29.97,SW,219,1.2,0.0,77,0.00,CLR,,0.02,WeatherDisplay:10.37,2013-12-03 17:08:00,
2013-12-03 12:13:00,47.6,40.4,29.97,SW,230,6.0,6.0,76,0.00,CLR,,0.02,WeatherDisplay:10.37,2013-12-03 17:13:00,
2013-12-03 12:18:00,48.1,40.9,29.97,SSW,213,4.0,4.0,76,0.00,CLR,,0.02,WeatherDisplay:10.37,2013-12-03 17:18:00,
2013-12-03 12:23:00,48.5,40.9,29.96,SSW,199,4.6,4.6,75,0.00,CLR,,0.02,WeatherDisplay:10.37,2013-12-03 17:23:00,
2013-12-03 12:28:00,48.8,40.9,29.96,SSW,203,5.0,5.0,74,0.00,CLR,,0.02,WeatherDisplay:10.37,2013-12-03 17:28:00,
2013-12-03 12:33:00,49.2,41.3,29.96,SSW,199,3.5,3.5,74,0.00,CLR,,0.02,WeatherDisplay:10.37,2013-12-03 17:33:00,
2013-12-03 12:38:00,49.7,41.4,29.96,SSW,193,5.0,5.0,73,0.00,CLR,,0.02,WeatherDisplay:10.37,2013-12-03 17:38:00,
2013-12-03 12:43:00,50.1,41.4,29.96,ESE,113,3.5,3.5,72,0.00,CLR,,0.02,WeatherDisplay:10.37,2013-12-03 17:43:00,
2013-12-03 12:48:00,50.5,41.4,29.96,SSW,210,5.0,5.0,71,0.00,CLR,,0.02,WeatherDisplay:10.37,2013-12-03 17:48:00,
2013-12-03 12:53:00,51.0,41.6,29.96,South,184,3.5,3.5,70,0.00,CLR,,0.02,WeatherDisplay:10.37,2013-12-03 17:53:00,
2013-12-03 12:58:00,51.4,41.6,29.96,South,176,6.0,6.0,69,0.00,CLR,,0.02,WeatherDisplay:10.37,2013-12-03 17:58:00,
2013-12-03 13:03:00,51.7,41.5,29.96,SW,230,6.9,6.9,68,0.00,CLR,,0.02,WeatherDisplay:10.37,2013-12-03 18:03:00,
2013-12-03 13:08:00,52.1,41.9,29.96,SSW,200,4.6,4.6,68,0.00,CLR,,0.02,WeatherDisplay:10.37,2013-12-03 18:08:00,
2013-12-03 13:13:00,52.6,42.3,29.95,South,189,5.0,5.0,68,0.00,CLR,,0.02,WeatherDisplay:10.37,2013-12-03 18:13:00,
2013-12-03 13:18:00,53.2,41.7,29.96,SSW,206,3.5,3.5,65,0.00,CLR,,0.02,WeatherDisplay:10.37,2013-12-03 18:18:00,
2013-12-03 13:23:00,53.6,42.5,29.96,WSW,256,6.0,6.0,66,0.00,CLR,,0.02,WeatherDisplay:10.37,2013-12-03 18:23:00,
2013-12-03 13:28:00,53.7,41.8,29.96,WSW,256,3.0,3.0,64,0.00,CLR,,0.02,WeatherDisplay:10.37,2013-12-03 18:28:00,
2013-12-03 13:33:00,53.7,41.8,29.96,WNW,296,1.2,0.0,64,0.00,CLR,,0.02,WeatherDisplay:10.37,2013-12-03 18:33:00,
2013-12-03 13:38:00,53.7,42.2,29.96,WSW,254,5.0,5.0,65,0.00,CLR,,0.02,WeatherDisplay:10.37,2013-12-03 18:38:00,
2013-12-03 13:43:00,53.5,41.6,29.96,SW,226,4.0,4.0,64,0.00,CLR,,0.02,WeatherDisplay:10.37,2013-12-03 18:43:00,
2013-12-03 13:48:00,53.4,41.5,29.97,SSW,205,5.0,5.0,64,0.00,CLR,,0.02,WeatherDisplay:10.37,2013-12-03 18:48:00,
2013-12-03 13:53:00,53.5,41.6,29.97,SSW,205,1.2,0.0,64,0.00,CLR,,0.02,WeatherDisplay:10.37,2013-12-03 18:53:00,
2013-12-03 13:58:00,53.5,41.6,29.97,SW,228,1.2,1.2,64,0.00,CLR,,0.02,WeatherDisplay:10.37,2013-12-03 18:58:00,
2013-12-03 14:03:00,53.5,41.2,29.97,WNW,284,5.0,5.0,63,0.00,CLR,,0.02,WeatherDisplay:10.37,2013-12-03 19:03:00,
2013-12-03 14:08:00,53.4,41.5,29.97,WNW,286,1.0,1.0,64,0.00,CLR,,0.02,WeatherDisplay:10.37,2013-12-03 19:08:00,
2013-12-03 14:13:00,53.4,40.7,29.97,WNW,286,0.0,0.0,62,0.00,CLR,,0.02,WeatherDisplay:10.37,2013-12-03 19:13:00,
2013-12-03 14:18:00,53.3,40.2,29.96,WNW,286,0.0,0.0,61,0.00,CLR,,0.02,WeatherDisplay:10.37,2013-12-03 19:18:00,
2013-12-03 14:23:00,53.3,40.2,29.96,WNW,286,1.2,1.2,61,0.00,CLR,,0.02,WeatherDisplay:10.37,2013-12-03 19:23:00,
2013-12-03 14:28:00,53.3,40.2,29.96,WNW,286,1.2,1.2,61,0.00,CLR,,0.02,WeatherDisplay:10.37,2013-12-03 19:28:00,
2013-12-03 14:33:00,53.4,40.3,29.96,WNW,287,1.2,1.2,61,0.00,CLR,,0.02,WeatherDisplay:10.37,2013-12-03 19:33:00,
2013-12-03 14:38:00,53.4,40.3,29.95,WNW,287,0.0,0.0,61,0.00,CLR,,0.02,WeatherDisplay:10.37,2013-12-03 19:38:00,
2013-12-03 14:43:00,53.5,40.8,29.95,WNW,287,1.2,0.0,62,0.00,CLR,,0.02,WeatherDisplay:10.37,2013-12-03 19:43:00,
2013-12-03 14:48:00,53.6,40.5,29.95,WNW,287,0.0,0.0,61,0.00,CLR,,0.02,WeatherDisplay:10.37,2013-12-03 19:48:00,
2013-12-03 14:53:00,53.5,40.4,29.96,WNW,287,0.0,0.0,61,0.00,CLR,,0.02,WeatherDisplay:10.37,2013-12-03 19:53:00,
2013-12-03 14:58:00,53.5,40.4,29.96,WNW,287,0.0,0.0,61,0.00,CLR,,0.02,WeatherDisplay:10.37,2013-12-03 19:58:00,
2013-12-03 15:03:00,53.7,41.0,29.96,WNW,287,0.0,0.0,62,0.00,CLR,,0.02,WeatherDisplay:10.37,2013-12-03 20:03:00,
2013-12-03 15:08:00,53.8,40.7,29.96,WNW,287,1.0,0.0,61,0.00,CLR,,0.02,WeatherDisplay:10.37,2013-12-03 20:08:00,
2013-12-03 15:13:00,53.9,40.8,29.96,WNW,287,1.0,0.0,61,0.00,CLR,,0.02,WeatherDisplay:10.37,2013-12-03 20:13:00,
2013-12-03 15:18:00,54.0,40.8,29.97,WNW,290,2.3,2.3,61,0.00,CLR,,0.02,WeatherDisplay:10.37,2013-12-03 20:18:00,
2013-12-03 15:23:00,54.1,40.9,29.97,WNW,290,1.2,0.0,61,0.00,CLR,,0.02,WeatherDisplay:10.37,2013-12-03 20:23:00,
2013-12-03 15:28:00,54.2,40.6,29.97,WNW,290,2.3,2.3,60,0.00,CLR,,0.02,WeatherDisplay:10.37,2013-12-03 20:28:00,
2013-12-03 15:33:00,54.3,40.3,29.97,WNW,290,1.2,0.0,59,0.00,CLR,,0.02,WeatherDisplay:10.37,2013-12-03 20:33:00,
2013-12-03 15:38:00,54.4,40.4,29.97,NNW,345,3.5,3.5,59,0.00,CLR,,0.02,WeatherDisplay:10.37,2013-12-03 20:38:00,
2013-12-03 15:43:00,54.4,40.4,29.97,NNW,346,0.0,0.0,59,0.00,CLR,,0.02,WeatherDisplay:10.37,2013-12-03 20:43:00,
2013-12-03 15:48:00,54.4,40.4,29.97,NNW,345,1.2,0.0,59,0.00,CLR,,0.02,WeatherDisplay:10.37,2013-12-03 20:48:00,
2013-12-03 15:53:00,54.2,40.2,29.97,NNW,346,1.2,1.2,59,0.00,CLR,,0.02,WeatherDisplay:10.37,2013-12-03 20:53:00,
2013-12-03 15:58:00,54.0,40.0,29.96,NNW,345,0.0,0.0,59,0.00,CLR,,0.02,WeatherDisplay:10.37,2013-12-03 20:58:00,
2013-12-03 16:03:00,53.8,39.8,29.97,NNW,346,0.0,0.0,59,0.00,CLR,,0.02,WeatherDisplay:10.37,2013-12-03 21:03:00,
2013-12-03 16:08:00,53.5,39.5,29.97,NNW,346,0.0,0.0,59,0.00,CLR,,0.02,WeatherDisplay:10.37,2013-12-03 21:08:00,
2013-12-03 16:13:00,53.3,39.8,29.97,NNW,345,0.0,0.0,60,0.00,CLR,,0.02,WeatherDisplay:10.37,2013-12-03 21:13:00,
2013-12-03 16:18:00,53.1,39.6,29.97,NNW,346,0.0,0.0,60,0.00,CLR,,0.02,WeatherDisplay:10.37,2013-12-03 21:18:00,
2013-12-03 16:23:00,52.7,39.6,29.97,NNW,345,0.0,0.0,61,0.00,CLR,,0.02,WeatherDisplay:10.37,2013-12-03 21:23:00,
2013-12-03 16:28:00,52.3,39.2,29.97,NNW,346,0.0,0.0,61,0.00,CLR,,0.02,WeatherDisplay:10.37,2013-12-03 21:28:00,
2013-12-03 16:33:00,52.0,39.4,29.97,NNW,346,0.0,0.0,62,0.00,CLR,,0.02,WeatherDisplay:10.37,2013-12-03 21:33:00,
2013-12-03 16:38:00,51.6,39.0,29.97,NNW,346,1.0,1.0,62,0.00,CLR,,0.02,WeatherDisplay:10.37,2013-12-03 21:38:00,
2013-12-03 16:43:00,51.4,39.2,29.97,NNW,346,1.0,1.0,63,0.00,CLR,,0.02,WeatherDisplay:10.37,2013-12-03 21:43:00,
2013-12-03 16:48:00,51.0,38.8,29.97,NNW,346,0.0,0.0,63,0.00,CLR,,0.02,WeatherDisplay:10.37,2013-12-03 21:48:00,
2013-12-03 16:53:00,50.8,38.7,29.96,NNW,346,0.0,0.0,63,0.00,CLR,,0.02,WeatherDisplay:10.37,2013-12-03 21:53:00,
2013-12-03 16:58:00,50.6,38.5,29.96,NNW,346,1.0,0.0,63,0.00,CLR,,0.02,WeatherDisplay:10.37,2013-12-03 21:58:00,
2013-12-03 17:03:00,50.3,38.6,29.96,East,80,1.2,0.0,64,0.00,CLR,,0.02,WeatherDisplay:10.37,2013-12-03 22:03:00,
2013-12-03 17:08:00,50.0,38.3,29.95,East,98,3.5,3.5,64,0.00,CLR,,0.02,WeatherDisplay:10.37,2013-12-03 22:08:00,
2013-12-03 17:13:00,49.8,38.5,29.95,East,101,3.5,3.5,65,0.00,CLR,,0.02,WeatherDisplay:10.37,2013-12-03 22:13:00,
2013-12-03 17:18:00,49.6,38.3,29.96,East,80,3.0,3.0,65,0.00,CLR,,0.02,WeatherDisplay:10.37,2013-12-03 22:18:00,
2013-12-03 17:23:00,49.5,38.2,29.95,East,80,1.0,0.0,65,0.00,CLR,,0.02,WeatherDisplay:10.37,2013-12-03 22:23:00,
2013-12-03 17:28:00,49.4,38.1,29.95,East,80,0.0,0.0,65,0.00,CLR,,0.02,WeatherDisplay:10.37,2013-12-03 22:28:00,
2013-12-03 17:33:00,49.2,37.9,29.96,East,80,0.0,0.0,65,0.00,CLR,,0.02,WeatherDisplay:10.37,2013-12-03 22:33:00,
2013-12-03 17:38:00,49.0,38.1,29.96,East,80,0.0,0.0,66,0.00,CLR,,0.02,WeatherDisplay:10.37,2013-12-03 22:38:00,
2013-12-03 17:43:00,48.9,38.0,29.96,East,80,1.2,0.0,66,0.00,CLR,,0.02,WeatherDisplay:10.37,2013-12-03 22:43:00,
2013-12-03 17:48:00,48.6,37.7,29.96,East,80,1.2,0.0,66,0.00,CLR,,0.02,WeatherDisplay:10.37,2013-12-03 22:48:00,
2013-12-03 17:53:00,48.4,37.9,29.95,East,80,1.0,0.0,67,0.00,CLR,,0.02,WeatherDisplay:10.37,2013-12-03 22:53:00,
2013-12-03 17:58:00,48.1,37.7,29.95,East,90,1.2,0.0,67,0.00,CLR,,0.02,WeatherDisplay:10.37,2013-12-03 22:58:00,
2013-12-03 18:03:00,47.9,37.8,29.95,East,90,2.3,2.3,68,0.00,CLR,,0.02,WeatherDisplay:10.37,2013-12-03 23:03:00,
2013-12-03 18:08:00,47.7,37.7,29.95,East,87,2.3,2.3,68,0.00,CLR,,0.02,WeatherDisplay:10.37,2013-12-03 23:08:00,
2013-12-03 18:13:00,47.7,37.7,29.95,East,94,3.5,3.5,68,0.00,CLR,,0.02,WeatherDisplay:10.37,2013-12-03 23:13:00,
2013-12-03 18:18:00,47.8,37.7,29.95,East,88,2.3,2.3,68,0.00,CLR,,0.02,WeatherDisplay:10.37,2013-12-03 23:18:00,
2013-12-03 18:23:00,47.9,37.8,29.95,East,88,1.0,1.0,68,0.00,CLR,,0.02,WeatherDisplay:10.37,2013-12-03 23:23:00,
2013-12-03 18:28:00,47.9,37.8,29.95,ENE,71,3.0,3.0,68,0.00,CLR,,0.02,WeatherDisplay:10.37,2013-12-03 23:28:00,
2013-12-03 18:33:00,47.9,37.5,29.96,ENE,71,1.2,1.2,67,0.00,CLR,,0.02,WeatherDisplay:10.37,2013-12-03 23:33:00,
2013-12-03 18:38:00,47.9,37.5,29.96,ENE,71,1.0,1.0,67,0.00,CLR,,0.02,WeatherDisplay:10.37,2013-12-03 23:38:00,
2013-12-03 18:43:00,47.8,37.4,29.97,ENE,71,0.0,0.0,67,0.00,CLR,,0.02,WeatherDisplay:10.37,2013-12-03 23:43:00,
2013-12-03 18:48:00,47.7,37.7,29.97,ENE,71,0.0,0.0,68,0.00,CLR,,0.02,WeatherDisplay:10.37,2013-12-03 23:48:00,
2013-12-03 18:53:00,47.6,37.6,29.97,ENE,71,0.0,0.0,68,0.00,CLR,,0.02,WeatherDisplay:10.37,2013-12-03 23:53:00,
2013-12-03 18:58:00,47.4,37.4,29.97,ENE,71,0.0,0.0,68,0.00,CLR,,0.02,WeatherDisplay:10.37,2013-12-03 23:58:00,
2013-12-03 19:03:00,47.3,37.3,29.97,ENE,71,0.0,0.0,68,0.00,CLR,,0.02,WeatherDisplay:10.37,2013-12-04 00:03:00,
2013-12-03 19:08:00,47.2,37.2,29.97,ENE,71,0.0,0.0,68,0.00,CLR,,0.02,WeatherDisplay:10.37,2013-12-04 00:08:00,
2013-12-03 19:13:00,47.1,37.4,29.97,ENE,71,2.0,2.0,69,0.00,CLR,,0.02,WeatherDisplay:10.37,2013-12-04 00:13:00,
2013-12-03 19:18:00,47.0,37.4,29.97,ESE,110,3.5,3.5,69,0.00,CLR,,0.02,WeatherDisplay:10.37,2013-12-04 00:18:00,
2013-12-03 19:23:00,47.1,37.4,29.96,ESE,106,4.0,4.0,69,0.00,CLR,,0.02,WeatherDisplay:10.37,2013-12-04 00:23:00,
2013-12-03 19:28:00,47.4,37.4,29.97,East,95,5.0,5.0,68,0.00,CLR,,0.02,WeatherDisplay:10.37,2013-12-04 00:28:00,
2013-12-03 19:33:00,47.6,37.6,29.97,East,96,3.5,3.5,68,0.00,CLR,,0.02,WeatherDisplay:10.37,2013-12-04 00:33:00,
2013-12-03 19:38:00,47.7,37.3,29.98,East,96,1.2,0.0,67,0.00,CLR,,0.02,WeatherDisplay:10.37,2013-12-04 00:38:00,
2013-12-03 19:43:00,47.8,37.4,29.98,East,96,0.0,0.0,67,0.00,CLR,,0.02,WeatherDisplay:10.37,2013-12-04 00:43:00,
2013-12-03 19:48:00,47.7,37.3,29.98,East,96,0.0,0.0,67,0.00,CLR,,0.02,WeatherDisplay:10.37,2013-12-04 00:48:00,
2013-12-03 19:53:00,47.6,37.2,29.98,East,96,0.0,0.0,67,0.00,CLR,,0.02,WeatherDisplay:10.37,2013-12-04 00:53:00,
2013-12-03 19:58:00,47.5,37.1,29.98,East,96,1.0,1.0,67,0.00,CLR,,0.02,WeatherDisplay:10.37,2013-12-04 00:58:00,
2013-12-03 20:03:00,47.3,36.9,29.98,East,96,1.2,0.0,67,0.00,CLR,,0.02,WeatherDisplay:10.37,2013-12-04 01:03:00,
2013-12-03 20:08:00,47.0,37.0,29.98,East,96,1.2,0.0,68,0.00,CLR,,0.02,WeatherDisplay:10.37,2013-12-04 01:08:00,
2013-12-03 20:13:00,46.9,36.9,29.98,East,96,2.3,2.3,68,0.00,CLR,,0.02,WeatherDisplay:10.37,2013-12-04 01:13:00,
2013-12-03 20:18:00,46.6,37.0,29.98,East,96,2.3,2.3,69,0.00,CLR,,0.02,WeatherDisplay:10.37,2013-12-04 01:18:00,
2013-12-03 20:23:00,46.5,36.9,29.97,East,96,2.3,2.3,69,0.00,CLR,,0.02,WeatherDisplay:10.37,2013-12-04 01:23:00,
2013-12-03 20:28:00,46.4,36.8,29.98,East,96,1.2,0.0,69,0.00,CLR,,0.02,WeatherDisplay:10.37,2013-12-04 01:28:00,
2013-12-03 20:33:00,46.3,36.7,29.98,East,96,1.2,1.2,69,0.00,CLR,,0.02,WeatherDisplay:10.37,2013-12-04 01:33:00,
2013-12-03 20:38:00,46.2,37.0,29.98,ENE,76,2.3,2.3,70,0.00,CLR,,0.02,WeatherDisplay:10.37,2013-12-04 01:38:00,
2013-12-03 20:43:00,46.1,36.9,29.98,ENE,76,0.0,0.0,70,0.00,CLR,,0.02,WeatherDisplay:10.37,2013-12-04 01:43:00,
2013-12-03 20:48:00,46.1,36.9,29.98,ENE,76,0.0,0.0,70,0.00,CLR,,0.02,WeatherDisplay:10.37,2013-12-04 01:48:00,
2013-12-03 20:53:00,46.0,36.8,29.98,East,96,3.5,3.5,70,0.00,CLR,,0.02,WeatherDisplay:10.37,2013-12-04 01:53:00,
2013-12-03 20:58:00,46.1,36.9,29.98,East,92,3.5,3.5,70,0.00,CLR,,0.02,WeatherDisplay:10.37,2013-12-04 01:58:00,
2013-12-03 21:03:00,46.1,36.9,29.98,East,88,3.5,3.5,70,0.00,CLR,,0.02,WeatherDisplay:10.37,2013-12-04 02:03:00,
2013-12-03 21:08:00,46.3,37.0,29.98,East,84,1.2,1.2,70,0.00,CLR,,0.02,WeatherDisplay:10.37,2013-12-04 02:08:00,
2013-12-03 21:13:00,46.3,36.7,29.97,East,84,2.3,2.3,69,0.00,CLR,,0.02,WeatherDisplay:10.37,2013-12-04 02:13:00,
2013-12-03 21:18:00,46.2,37.0,29.97,East,91,3.5,3.5,70,0.00,CLR,,0.02,WeatherDisplay:10.37,2013-12-04 02:18:00,
2013-12-03 21:23:00,46.1,36.9,29.97,East,84,3.5,3.5,70,0.00,CLR,,0.02,WeatherDisplay:10.37,2013-12-04 02:23:00,
2013-12-03 21:28:00,46.1,36.9,29.97,East,84,2.3,2.3,70,0.00,CLR,,0.02,WeatherDisplay:10.37,2013-12-04 02:28:00,
2013-12-03 21:33:00,45.9,36.7,29.97,East,91,3.5,3.5,70,0.00,CLR,,0.02,WeatherDisplay:10.37,2013-12-04 02:33:00,
2013-12-03 21:38:00,45.7,36.5,29.97,East,88,3.0,3.0,70,0.00,CLR,,0.02,WeatherDisplay:10.37,2013-12-04 02:38:00,
2013-12-03 21:43:00,45.6,36.4,29.97,East,94,3.5,3.5,70,0.00,CLR,,0.02,WeatherDisplay:10.37,2013-12-04 02:43:00,
2013-12-03 21:48:00,45.5,36.3,29.97,East,92,3.5,3.5,70,0.00,CLR,,0.02,WeatherDisplay:10.37,2013-12-04 02:48:00,
2013-12-03 21:53:00,45.4,36.2,29.97,East,95,4.6,4.6,70,0.00,CLR,,0.02,WeatherDisplay:10.37,2013-12-04 02:53:00,
2013-12-03 21:58:00,45.4,36.2,29.97,East,98,6.0,6.0,70,0.00,CLR,,0.02,WeatherDisplay:10.37,2013-12-04 02:58:00,
2013-12-03 22:03:00,45.5,36.3,29.97,ESE,111,3.5,3.5,70,0.00,CLR,,0.02,WeatherDisplay:10.37,2013-12-04 03:03:00,
2013-12-03 22:08:00,45.6,36.4,29.97,ESE,107,5.0,5.0,70,0.00,CLR,,0.02,WeatherDisplay:10.37,2013-12-04 03:08:00,
2013-12-03 22:13:00,45.6,36.4,29.97,East,91,4.6,4.6,70,0.00,CLR,,0.02,WeatherDisplay:10.37,2013-12-04 03:13:00,
2013-12-03 22:18:00,45.5,36.3,29.97,East,98,3.5,3.5,70,0.00,CLR,,0.02,WeatherDisplay:10.37,2013-12-04 03:18:00,
2013-12-03 22:23:00,45.3,36.1,29.97,ESE,103,3.5,3.5,70,0.00,CLR,,0.02,WeatherDisplay:10.37,2013-12-04 03:23:00,
2013-12-03 22:28:00,45.1,36.3,29.97,East,98,1.2,1.2,71,0.00,CLR,,0.02,WeatherDisplay:10.37,2013-12-04 03:28:00,
2013-12-03 22:33:00,45.0,36.2,29.97,ESE,108,2.3,2.3,71,0.00,CLR,,0.02,WeatherDisplay:10.37,2013-12-04 03:33:00,
2013-12-03 22:38:00,45.0,36.2,29.97,ESE,102,0.0,0.0,71,0.00,CLR,,0.02,WeatherDisplay:10.37,2013-12-04 03:38:00,
2013-12-03 22:43:00,44.9,36.1,29.98,East,101,2.3,2.3,71,0.00,CLR,,0.02,WeatherDisplay:10.37,2013-12-04 03:43:00,
2013-12-03 22:48:00,44.8,36.0,29.98,ESE,115,2.3,2.3,71,0.00,CLR,,0.02,WeatherDisplay:10.37,2013-12-04 03:48:00,
2013-12-03 22:53:00,44.8,36.0,29.98,ESE,114,0.0,0.0,71,0.00,CLR,,0.02,WeatherDisplay:10.37,2013-12-04 03:53:00,
2013-12-03 23:03:00,44.7,35.9,29.98,SSE,163,2.3,2.3,71,0.00,CLR,,0.02,WeatherDisplay:10.37,2013-12-04 04:03:00,
2013-12-03 23:08:00,44.7,35.9,29.98,South,178,3.0,3.0,71,0.00,CLR,,0.02,WeatherDisplay:10.37,2013-12-04 04:08:00,
2013-12-03 23:13:00,44.7,36.2,29.98,SSE,159,2.0,2.0,72,0.00,CLR,,0.02,WeatherDisplay:10.37,2013-12-04 04:13:00,
2013-12-03 23:18:00,44.6,35.8,29.98,SE,128,1.2,0.0,71,0.00,CLR,,0.02,WeatherDisplay:10.37,2013-12-04 04:18:00,
2013-12-03 23:23:00,44.6,35.8,29.98,SSE,156,2.0,2.0,71,0.00,CLR,,0.02,WeatherDisplay:10.37,2013-12-04 04:23:00,
2013-12-03 23:28:00,44.6,36.1,29.98,SE,129,1.2,0.0,72,0.00,CLR,,0.02,WeatherDisplay:10.37,2013-12-04 04:28:00,
2013-12-03 23:33:00,44.5,35.7,29.98,SSE,164,3.0,3.0,71,0.00,CLR,,0.02,WeatherDisplay:10.37,2013-12-04 04:33:00,
2013-12-03 23:38:00,44.5,35.7,29.97,SE,144,3.5,3.5,71,0.00,CLR,,0.02,WeatherDisplay:10.37,2013-12-04 04:38:00,
2013-12-03 23:43:00,44.5,35.7,29.98,SSE,159,2.0,2.0,71,0.00,CLR,,0.02,WeatherDisplay:10.37,2013-12-04 04:43:00,
2013-12-03 23:48:00,44.5,35.7,29.97,SE,142,3.5,3.5,71,0.00,CLR,,0.02,WeatherDisplay:10.37,2013-12-04 04:48:00,
2013-12-03 23:53:00,44.5,35.7,29.97,SE,130,4.0,4.0,71,0.00,CLR,,0.02,WeatherDisplay:10.37,2013-12-04 04:53:00,
2013-12-03 23:58:00,44.5,35.7,29.97,ESE,121,4.0,4.0,71,0.00,CLR,,0.02,WeatherDisplay:10.37,2013-12-04 04:58:00,